TimeCDT,TemperatureF,Dew PointF,Humidity,Sea Level PressureIn,VisibilityMPH,Wind Direction,Wind SpeedMPH,Gust SpeedMPH,PrecipitationIn,Events,Conditions,WindDirDegrees,DateUTC
12:51 AM,71.1,42.1,35,29.64,10.0,South,16.1,24.2,N/A,,Clear,180,2013-03-17 05:51:00
1:51 AM,70.0,43.0,38,29.64,10.0,South,15.0,-,N/A,,Clear,190,2013-03-17 06:51:00
2:51 AM,69.1,45.0,42,29.62,10.0,South,17.3,24.2,N/A,,Clear,190,2013-03-17 07:51:00
3:51 AM,68.0,46.9,47,29.62,10.0,South,19.6,27.6,N/A,,Clear,190,2013-03-17 08:51:00
4:51 AM,66.0,48.0,52,29.63,10.0,SW,9.2,-,N/A,,Clear,220,2013-03-17 09:51:00
5:51 AM,63.0,48.0,58,29.66,10.0,North,3.5,-,N/A,,Clear,10,2013-03-17 10:51:00
6:51 AM,55.9,45.0,67,29.73,10.0,NE,9.2,-,N/A,,Clear,40,2013-03-17 11:51:00
7:51 AM,52.0,42.1,69,29.76,10.0,NE,8.1,-,N/A,,Clear,50,2013-03-17 12:51:00
8:51 AM,52.0,39.9,63,29.80,10.0,NE,6.9,-,N/A,,Clear,50,2013-03-17 13:51:00
9:51 AM,53.1,39.0,59,29.82,10.0,ENE,6.9,-,N/A,,Clear,70,2013-03-17 14:51:00
10:51 AM,57.0,39.9,53,29.83,10.0,NE,5.8,-,N/A,,Clear,40,2013-03-17 15:51:00
11:51 AM,61.0,39.9,46,29.82,10.0,North,5.8,-,N/A,,Clear,360,2013-03-17 16:51:00
12:51 PM,66.0,42.1,42,29.78,10.0,WNW,6.9,-,N/A,,Clear,300,2013-03-17 17:51:00
2:51 PM,73.9,39.9,29,29.70,10.0,Calm,Calm,-,N/A,,Clear,0,2013-03-17 19:51:00
4:51 PM,82.9,34.0,17,29.63,10.0,West,12.7,18.4,N/A,,Clear,270,2013-03-17 21:51:00
5:51 PM,82.0,33.1,17,29.61,10.0,NW,6.9,-,N/A,,Clear,310,2013-03-17 22:51:00
6:51 PM,81.0,33.1,18,29.63,10.0,SSW,3.5,-,N/A,,Clear,200,2013-03-17 23:51:00
7:51 PM,78.1,33.1,19,29.63,10.0,SE,5.8,-,N/A,,Clear,140,2013-03-18 00:51:00
8:51 PM,70.0,32.0,25,29.64,10.0,SE,5.8,-,N/A,,Clear,140,2013-03-18 01:51:00
9:51 PM,68.0,32.0,26,29.65,10.0,South,6.9,-,N/A,,Clear,170,2013-03-18 02:51:00
10:51 PM,62.1,32.0,32,29.67,10.0,Calm,Calm,-,N/A,,Clear,0,2013-03-18 03:51:00
11:51 PM,64.0,34.0,33,29.71,10.0,Variable,4.6,31.1,N/A,,Clear,0,2013-03-18 04:51:00